Location: Kott?ru
(16.6209°N, 80.6208°E)
Time: 05:13:43
(UTC+00:00)

Hubble Space Telescope - Pass Details

Date: 07 February 2023
Orbit: 527 x 530 km, 28.5° (Epoch: 27 March)

Event Time Altitude Azimuth Distance (km) Brightness Sun altitude
Rises 12:53:46 0° 205° (SSW) 2,640 4.9 -4.8°
Reaches altitude 10° 12:57:12 10° 175° (S) 1,752 3.5 -5.6°
Maximum altitude 12:58:57 12° 149° (SSE) 1,600 3.0 -6.0°
Drops below altitude 10° 13:00:41 10° 123° (ESE) 1,751 3.0 -6.4°
Enters shadow 13:02:26 - 105° (ESE) 2,140 3.3 -6.8°
